This is the latest recevied weather packets stored in our database for station/object IW7DVM-13. If no packets are shown the sender has not sent any weather packets the latest 1 day(s).
| Time | Temp. | Humidity | Pressure | Rain* | Wind** | Luminosity | Snow |
|---|---|---|---|---|---|---|---|
| 1778005803 | 17.22° C | 72% | 1010.5 hPa | 0 mm | 0.45 m/s, 99° | - | - |
| 1778005503 | 17.22° C | 72% | 1010.5 hPa | 0 mm | 0.45 m/s, 111° | - | - |
| 1778005203 | 17.22° C | 72% | 1010.5 hPa | 0 mm | 0.45 m/s, 111° | - | - |
| 1778004903 | 17.22° C | 72% | 1010.6 hPa | 0 mm | 0.45 m/s, 80° | - | - |
| 1778004603 | 17.22° C | 72% | 1010.5 hPa | 0 mm | 0.45 m/s, 103° | - | - |
| 1778004303 | 17.22° C | 72% | 1010.5 hPa | 0 mm | 0.89 m/s, 118° | - | - |
| 1778004003 | 17.22° C | 72% | 1010.4 hPa | 0 mm | 0.45 m/s, 83° | - | - |
| 1778003703 | 17.22° C | 72% | 1010.5 hPa | 0 mm | 0.45 m/s, 113° | - | - |
| 1778003403 | 17.22° C | 72% | 1010.4 hPa | 0 mm | 1.34 m/s, 126° | - | - |
| 1778003103 | 17.78° C | 72% | 1010.5 hPa | 0 mm | 0.89 m/s, 123° | - | - |
| 1778002803 | 17.78° C | 72% | 1010.5 hPa | 0 mm | 0.89 m/s, 126° | - | - |
| 1778002503 | 17.78° C | 72% | 1010.6 hPa | 0 mm | 0.89 m/s, 126° | - | - |
| 1778002203 | 17.78° C | 72% | 1010.3 hPa | 0 mm | 1.34 m/s, 131° | - | - |
| 1778001903 | 17.78° C | 72% | 1010.4 hPa | 0 mm | 1.34 m/s, 127° | - | - |
| 1778001603 | 17.78° C | 72% | 1010.4 hPa | 0 mm | 0.89 m/s, 116° | - | - |
| 1778001303 | 17.78° C | 72% | 1010.4 hPa | 0 mm | 1.34 m/s, 127° | - | - |
| 1778001003 | 17.78° C | 72% | 1010.4 hPa | 0 mm | 1.34 m/s, 120° | - | - |
| 1778000703 | 17.78° C | 72% | 1010.6 hPa | 0 mm | 0.89 m/s, 94° | - | - |
| 1778000403 | 17.78° C | 72% | 1010.6 hPa | 0 mm | 0.89 m/s, 87° | - | - |
| 1778000103 | 17.78° C | 72% | 1010.7 hPa | 0 mm | 0.89 m/s, 124° | - | - |
| 1777999803 | 17.78° C | 71% | 1010.6 hPa | 0 mm | 0.89 m/s, 88° | - | - |
| 1777999503 | 17.78° C | 72% | 1010.7 hPa | 0 mm | 0.89 m/s, 108° | - | - |
| 1777999203 | 17.78° C | 71% | 1010.7 hPa | 0 mm | 0.89 m/s, 85° | - | - |
| 1777998907 | 17.78° C | 71% | 1010.7 hPa | 0 mm | 0.89 m/s, 73° | - | - |
| 1777998603 | 17.78° C | 72% | 1010.8 hPa | 0 mm | 0.89 m/s, 109° | - | - |
* Rain latest hour (hover to see other rain measurements)
** Current wind speed in m/s (hover to see current wind gust speed)